{"data":{"norad_id":45190,"intl_designator":"2020-012N","name":"STARLINK-1234","alt_names":[],"object_type":"PAYLOAD","status":"ACTIVE","operator":null,"country":"US","launch_date":"2020-02-17","launch_site_code":"AFETR","launch_vehicle":null,"mission":null,"orbit_class":"UNKNOWN","rcs_meters":null,"size_class":null,"mass_kg":null,"dimensions":null,"purposes":["comms"],"wikipedia_slug":null,"has_3d_model":false,"image_url":null,"decayed_at":null,"tle_current":{"epoch":"2026-05-24T21:19:25.683744Z","epoch_age_seconds":88203,"freshness":"FRESH","line1":"1 45190U 20012N   26144.88849171  .00063659  00000+0  47319-3 0  9992","line2":"2 45190  53.0410 309.6712 0006102 183.6141 176.4833 15.72229266347834","mean_motion":15.72229266,"eccentricity":0.0006102,"inclination_deg":53.041,"raan_deg":309.6712,"arg_perigee_deg":183.6141,"mean_anomaly_deg":176.4833,"bstar":0.00047319,"rev_number":34783,"period_min":91.589695672285,"perigee_km":348.42015223755,"apogee_km":356.63425483154,"semimajor_km":6730.6642035345,"source":"CELESTRAK","updated_at":"2026-05-25T13:38:16.382433Z"}}}